Regional Weather Roundup
Issued by NWS Albany, NY

Home | Current Version | Previous Version | Graphics & Text | Print | Product List | Glossary Off
Versions: 1 2 3 4 5 6 7 8 9 10 11 12 13 14 15 16 17 18 19 20 21 22 23 24 25 26 27 28

000
ASUS41 KALY 151710
RWRALY

NEW YORK STATE HOURLY WEATHER ROUNDUP
NATIONAL WEATHER SERVICE ALBANY NY
1200 PM EST FRI DEC 15 2017

NOTE: "FAIR" INDICATES FEW OR NO CLOUDS BELOW 12,000 FEET WITH NO
SIGNIFICANT WEATHER AND/OR NO OBSTRUCTIONS TO VISIBILITY.

NYZ032-033-038>043-046>054-057>066-NYZ062>081-082-084-151800-
EAST


CITY           SKY/WX    TMP DP  RH WIND       PRES   REMARKS
ALBANY         CLOUDY    19   8  62 SE7       30.02F WCI  10
GLENS FALLS    MOSUNNY   16   9  74 S5        30.01F WCI   9
POUGHKEEPSIE   CLOUDY    22   9  57 SW5       30.03F WCI  16
NEWBURGH       PTSUNNY   21  12  68 SW6       30.02F WCI  14
MONTGOMERY     CLOUDY    20  10  65 SW6       30.00F WCI  12
WHITE PLAINS   MOSUNNY   24  11  57 SW5       30.00F WCI  18
ISLIP          CLOUDY    29  17  61 CALM      30.03F
NEW YORK CITY  CLOUDY    28  13  53 CALM      30.04F
CENTRAL PARK   CLOUDY    26  12  55 NW3       30.05F
$$

NYZ005>009-017-018-044>046-055-056-151800-
CENTRAL


CITY           SKY/WX    TMP DP  RH WIND       PRES   REMARKS
FULTON         CLOUDY    22  13  68 S6        29.92F WCI  14
SYRACUSE       CLOUDY    23  13  65 S8        29.93F WCI  14
ROME           MOSUNNY   20  12  71 SE8       29.96F WCI  10
ELMIRA         SUNNY     19  11  70 CALM      29.90F
BINGHAMTON     CLOUDY    17   8  67 S7        29.86F WCI   8
MONTICELLO     CLOUDY    18  10  71 SE3       29.93F
$$

NYZ026>034-041>043-087-151800-
NORTH


CITY           SKY/WX    TMP DP  RH WIND       PRES   REMARKS
WATERTOWN      MOSUNNY   23  15  71 S10       29.91F WCI  12
FORT DRUM      NOT AVBL
OGDENSBURG     LGT SNOW  24  18  77 S6        29.91F WCI  17
MASSENA        CLOUDY    12   6  77 CALM      29.95F
SARANAC LAKE   CLOUDY    16   8  71 SW12      29.82F WCI   3
PLATTSBURGH    PTSUNNY   22   7  52 S7        29.95F WCI  13
$$

NYZ001>004-010>016-019>021-085-151800-
WEST


CITY           SKY/WX    TMP DP  RH WIND       PRES   REMARKS
NIAGARA FALLS  LGT SNOW  25  18  74 SW8       29.84F WCI  16
BUFFALO        CLOUDY    22  14  71 S13       29.85F WCI  10
DUNKIRK        MOSUNNY   22  14  71 S16       29.87F WCI   8
JAMESTOWN      CLOUDY    19  12  74 SW12      29.81F WCI   7
WELLSVILLE     CLOUDY    21  10  62 SW10      29.80F WCI  10
ROCHESTER      CLOUDY    22  13  68 SW10      29.90F WCI  11
PENN YAN       MOSUNNY   22  12  65 S9        29.89F WCI  12
$$

             KEY
       WCI = WIND CHILL INDEX
       VSB = VISIBILITY
       HX  = HEAT INDEX
$$




USA.gov is the U.S. government's official web portal to all federal, state and local government web resources and services.